Home   Weather   Playa del Carmen   Past weeks
Flag for Mexico

Past Weather in Playa del Carmen, Quintana Roo, Mexico — Yesterday and Last 2 Weeks

Now
84 °F

Scattered clouds.


Feels Like: 90 °F
Forecast: 84 / 75 °F
Wind: 12 mph from East

Location: Cozumel Civ / Mil

Current Time: Apr 23, 2019 at 1:24:09 pm

Latest Report: Apr 23, 2019 at 11:42 am


Visibility: 8 mi

Pressure: 30.00 "Hg

Humidity: 66%

Dew Point: 72 °F

Location of Playa del CarmenLocation

Past Weather in Playa del Carmen — Graph

°F

Playa del Carmen Temperature Yesterday

Maximum temperature yesterday: 84 °F (at 11:46 am)
Minimum temperature yesterday: 66 °F (at 2:41 am)
Average temperature yesterday: 76 °F

High & Low Weather Summary for the Past Weeks

 TemperatureHumidityPressure
High90 °F (Apr 19, 2:44 am)100% (Apr 9, 12:42 pm)30.12 "Hg (Apr 9, 12:42 pm)
Low63 °F (Apr 21, 3:43 am)48% (Apr 10, 2:42 pm)29.75 "Hg (Apr 13, 4:46 pm)
Average79 °F77%29.92 "Hg
* Reported Apr 8 11:46 am — Apr 23 11:42 am, Playa del Carmen. Weather by CustomWeather, © 2019

Note: Actual official high and low records may vary slightly from our data, if they occured in-between our weather recording intervals... More about our weather records

Advertising

Playa del Carmen Weather History for the Previous 24 Hours

Scroll right to see more
 ConditionsComfort  
Time TempWeatherWind HumidityBarometerVisibility
11:42 am
Tue, Apr 23
84 °FScattered clouds.12 mph66%30.00 "Hg8 mi
10:53 am84 °FScattered clouds.10 mph66%30.01 "Hg8 mi
9:45 am84 °FScattered clouds.10 mph66%30.02 "Hg8 mi
8:43 am82 °FPassing clouds.8 mph70%29.99 "Hg8 mi
7:40 am75 °FPassing clouds.5 mph83%29.99 "Hg8 mi
6:46 am66 °FPassing clouds.No wind100%29.99 "Hg8 mi
5:44 am66 °FPassing clouds.No wind94%29.96 "Hg7 mi
4:44 am68 °FClear.No wind94%29.95 "Hg7 mi
3:44 am70 °FClear.No wind88%29.97 "Hg7 mi
2:44 am70 °FPassing clouds.5 mph88%29.96 "Hg7 mi
1:47 am68 °FPassing clouds.3 mph94%29.99 "Hg7 mi
12:46 am70 °FClear.3 mph88%30.02 "Hg7 mi
11:45 pm
Mon, Apr 22
68 °FPassing clouds.No wind88%30.03 "Hg7 mi
10:46 pm72 °FClear.3 mph78%30.02 "Hg7 mi
9:46 pm72 °FPassing clouds.3 mph83%30.03 "Hg7 mi
8:45 pm73 °FClear.5 mph78%30.01 "Hg8 mi
7:53 pm75 °FPassing clouds.6 mph74%29.99 "Hg7 mi
6:51 pm79 °FPassing clouds.9 mph65%30.00 "Hg8 mi
6:03 pm81 °FScattered clouds.9 mph62%29.98 "Hg8 mi
4:40 pm82 °FScattered clouds.12 mph62%29.98 "Hg8 mi
3:51 pm84 °FScattered clouds.17 mph58%29.99 "Hg8 mi
2:47 pm82 °FScattered clouds.9 mph62%29.99 "Hg8 mi
1:44 pm84 °FPassing clouds.6 mph62%30.01 "Hg8 mi
Weather by CustomWeather, © 2019

See weather overview